Location: Taupo
(38.6830°S, 176.0830°E)
Time: 15:38:30
(UTC+13:00)

CZ-4C R/B - Visible Passes

Search period start: 13 December 2019 00:00
Search period end: 23 December 2019 00:00
Orbit: 650 x 1352 km, 63.4° (Epoch: 12 December)

Date Brightness Start Highest point End Pass type
(mag) Time Alt. Az. Time Alt. Az. Time Alt. Az.
17 Dec 5.6 05:10:53 10° ENE 05:13:09 11° ENE 05:15:21 10° E visible
20 Dec 5.0 04:58:49 10° NNE 05:04:43 22° ENE 05:10:13 10° ESE visible
22 Dec 5.1 04:18:17 10° NE 04:23:20 18° ENE 04:28:06 10° ESE visible
